FFT1915 KCLT-KJFK

Flight info

Callsign FFT1915
Flight time 1h 14m
Altitude 37000
Route BARMY5 TYI Q64 SAWED Q108 SIE CAMRN5
Aircraft A20N/M-SDE2E3FGHIRWXY/LB1

Departure

Time 2026-05-07 01:25
Airport Charlotte Douglas International Airport (KCLT)

Arrival

Time 2026-05-07 02:39
Airport John F. Kennedy International Airport (KJFK)
Time Latitude Longitude Altitude Speed Heading
2026-05-07 01:00 35.21845 -80.94598 720 ft 0 kts 96°
2026-05-07 01:16 35.21845 -80.94599 719 ft 1 kts 96°
2026-05-07 01:16 35.21847 -80.94618 720 ft 2 kts 95°
2026-05-07 01:16 35.21848 -80.94638 722 ft 2 kts 93°
2026-05-07 01:16 35.21849 -80.94659 719 ft 2 kts 91°
2026-05-07 01:17 35.21849 -80.94679 719 ft 2 kts 88°
2026-05-07 01:17 35.21848 -80.94699 720 ft 2 kts 82°
2026-05-07 01:17 35.21845 -80.94718 720 ft 2 kts 71°
2026-05-07 01:17 35.21837 -80.94736 718 ft 2 kts 40°
2026-05-07 01:18 35.21825 -80.94743 721 ft 1 kts 359°
2026-05-07 01:18 35.21823 -80.94743 721 ft 0 kts 357°
2026-05-07 01:21 35.21826 -80.94743 718 ft 2 kts 357°
2026-05-07 01:21 35.21870 -80.94765 720 ft 11 kts 322°
2026-05-07 01:21 35.21878 -80.94859 717 ft 13 kts 265°
2026-05-07 01:21 35.21870 -80.94981 716 ft 15 kts 265°
2026-05-07 01:22 35.21918 -80.95047 717 ft 12 kts 351°
2026-05-07 01:22 35.22011 -80.95054 718 ft 15 kts 356°
2026-05-07 01:22 35.22122 -80.95063 718 ft 17 kts 356°
2026-05-07 01:22 35.22244 -80.95074 716 ft 19 kts 355°
2026-05-07 01:23 35.22380 -80.95085 717 ft 19 kts 356°
2026-05-07 01:23 35.22520 -80.95097 714 ft 21 kts 355°
2026-05-07 01:23 35.22667 -80.95110 712 ft 21 kts 356°
2026-05-07 01:23 35.22736 -80.95167 699 ft 12 kts 276°
2026-05-07 01:24 35.22723 -80.95285 699 ft 15 kts 246°
2026-05-07 01:24 35.22628 -80.95307 713 ft 16 kts 176°
2026-05-07 01:24 35.22260 -80.95275 715 ft 95 kts 176°
2026-05-07 01:24 35.21352 -80.95197 724 ft 163 kts 177°
2026-05-07 01:25 35.20117 -80.95089 1141 ft 191 kts 177°
2026-05-07 01:25 35.18721 -80.94946 1788 ft 212 kts 180°
2026-05-07 01:25 35.17192 -80.94764 2461 ft 233 kts 175°
2026-05-07 01:25 35.15880 -80.93670 3693 ft 242 kts 129°
2026-05-07 01:26 35.14868 -80.91822 3856 ft 281 kts 131°
2026-05-07 01:26 35.13718 -80.89725 4149 ft 314 kts 129°
2026-05-07 01:26 35.12483 -80.87417 4670 ft 331 kts 126°
2026-05-07 01:26 35.11813 -80.84793 6085 ft 324 kts 93°
2026-05-07 01:27 35.12304 -80.82105 6884 ft 339 kts 71°
2026-05-07 01:27 35.13120 -80.79266 7143 ft 361 kts 70°
2026-05-07 01:27 35.14012 -80.76424 8218 ft 355 kts 69°
2026-05-07 01:27 35.14832 -80.73613 9403 ft 345 kts 72°
2026-05-07 01:28 35.15481 -80.70894 10647 ft 335 kts 74°
2026-05-07 01:28 35.16111 -80.68090 11140 ft 353 kts 74°
2026-05-07 01:28 35.16809 -80.65113 11395 ft 376 kts 73°
2026-05-07 01:28 35.17579 -80.62004 11896 ft 386 kts 72°
2026-05-07 01:29 35.18381 -80.58865 12663 ft 389 kts 72°
2026-05-07 01:29 35.19204 -80.55687 13338 ft 395 kts 72°
2026-05-07 01:29 35.20041 -80.52463 13995 ft 401 kts 72°
2026-05-07 01:29 35.20890 -80.49187 14599 ft 406 kts 71°
2026-05-07 01:30 35.21747 -80.45876 15243 ft 411 kts 71°
2026-05-07 01:30 35.22613 -80.42523 15753 ft 417 kts 71°
2026-05-07 01:30 35.23487 -80.39132 15948 ft 418 kts 71°
2026-05-07 01:30 35.24349 -80.35786 15990 ft 418 kts 71°
2026-05-07 01:31 35.25223 -80.32392 15995 ft 418 kts 71°
2026-05-07 01:31 35.26093 -80.29005 15998 ft 417 kts 71°
2026-05-07 01:31 35.26963 -80.25614 16010 ft 419 kts 71°
2026-05-07 01:31 35.27840 -80.22197 16353 ft 423 kts 71°
2026-05-07 01:32 35.28720 -80.18754 17073 ft 425 kts 70°
2026-05-07 01:32 35.29605 -80.15291 17668 ft 429 kts 70°
2026-05-07 01:32 35.30497 -80.11795 18298 ft 433 kts 70°
2026-05-07 01:32 35.31400 -80.08251 18780 ft 438 kts 70°
2026-05-07 01:33 35.32311 -80.04673 19315 ft 442 kts 70°
2026-05-07 01:33 35.33229 -80.01065 19811 ft 447 kts 70°
2026-05-07 01:33 35.34157 -79.97410 20336 ft 452 kts 70°
2026-05-07 01:33 35.35083 -79.93759 20796 ft 457 kts 70°
2026-05-07 01:34 35.36028 -79.90029 21304 ft 461 kts 70°
2026-05-07 01:34 35.36982 -79.86254 21808 ft 466 kts 70°
2026-05-07 01:34 35.37953 -79.82453 22318 ft 469 kts 69°
2026-05-07 01:34 35.39026 -79.78667 22807 ft 472 kts 67°
2026-05-07 01:35 35.40152 -79.74883 23385 ft 474 kts 66°
2026-05-07 01:35 35.41292 -79.71063 23810 ft 479 kts 66°
2026-05-07 01:35 35.42427 -79.67212 24254 ft 482 kts 67°
2026-05-07 01:35 35.43560 -79.63333 24699 ft 485 kts 67°
2026-05-07 01:36 35.44676 -79.59480 25112 ft 488 kts 67°
2026-05-07 01:36 35.45813 -79.55542 25530 ft 491 kts 68°
2026-05-07 01:36 35.46956 -79.51577 25933 ft 494 kts 68°
2026-05-07 01:36 35.48103 -79.47593 26341 ft 497 kts 68°
2026-05-07 01:37 35.49255 -79.43583 26723 ft 500 kts 68°
2026-05-07 01:37 35.50409 -79.39558 26910 ft 498 kts 68°
2026-05-07 01:37 35.51554 -79.35561 26962 ft 496 kts 68°
2026-05-07 01:37 35.52698 -79.31563 26973 ft 498 kts 68°
2026-05-07 01:38 35.53850 -79.27537 27263 ft 501 kts 68°
2026-05-07 01:38 35.55002 -79.23500 27711 ft 502 kts 68°
2026-05-07 01:38 35.56160 -79.19440 28057 ft 505 kts 68°
2026-05-07 01:38 35.57306 -79.15417 28405 ft 508 kts 68°
2026-05-07 01:39 35.58472 -79.11315 28751 ft 510 kts 68°
2026-05-07 01:39 35.59643 -79.07190 29079 ft 513 kts 68°
2026-05-07 01:39 35.60821 -79.03048 29423 ft 514 kts 68°
2026-05-07 01:39 35.62003 -78.98891 29747 ft 517 kts 68°
2026-05-07 01:40 35.63192 -78.94711 30042 ft 520 kts 68°
2026-05-07 01:40 35.64386 -78.90507 30295 ft 523 kts 68°
2026-05-07 01:40 35.65586 -78.86271 30527 ft 526 kts 68°
2026-05-07 01:40 35.66789 -78.82013 30764 ft 529 kts 68°
2026-05-07 01:41 35.67998 -78.77731 31012 ft 532 kts 68°
2026-05-07 01:41 35.69195 -78.73482 31300 ft 533 kts 68°
2026-05-07 01:41 35.70408 -78.69168 31594 ft 534 kts 68°
2026-05-07 01:41 35.71620 -78.64851 31997 ft 534 kts 68°
2026-05-07 01:42 35.72840 -78.60500 32055 ft 541 kts 68°
2026-05-07 01:42 35.74069 -78.56115 32285 ft 543 kts 68°
2026-05-07 01:42 35.75298 -78.51717 32577 ft 544 kts 67°
2026-05-07 01:42 35.76530 -78.47301 32857 ft 546 kts 67°
2026-05-07 01:43 35.77761 -78.42879 33122 ft 547 kts 67°
2026-05-07 01:43 35.78994 -78.38444 33400 ft 548 kts 67°
2026-05-07 01:43 35.80228 -78.33997 33662 ft 549 kts 67°
2026-05-07 01:43 35.81463 -78.29542 33917 ft 550 kts 67°
2026-05-07 01:44 35.82698 -78.25077 34149 ft 551 kts 66°
2026-05-07 01:44 35.83915 -78.20672 34389 ft 551 kts 66°
2026-05-07 01:44 35.85149 -78.16197 34631 ft 551 kts 66°
2026-05-07 01:44 35.86381 -78.11719 34874 ft 551 kts 66°
2026-05-07 01:45 35.87611 -78.07244 35095 ft 552 kts 66°
2026-05-07 01:45 35.88841 -78.02764 35305 ft 552 kts 66°
2026-05-07 01:45 35.90070 -77.98278 35514 ft 553 kts 66°
2026-05-07 01:46 35.92539 -77.89239 35858 ft 555 kts 65°
2026-05-07 01:46 35.93767 -77.84730 36069 ft 555 kts 65°
2026-05-07 01:46 35.94996 -77.80215 36276 ft 555 kts 65°
2026-05-07 01:46 35.96265 -77.75722 36470 ft 551 kts 60°
2026-05-07 01:47 35.97899 -77.71497 36642 ft 541 kts 51°
2026-05-07 01:47 35.99893 -77.67694 36811 ft 529 kts 42°
2026-05-07 01:47 36.02224 -77.64251 36963 ft 518 kts 35°
2026-05-07 01:48 36.07113 -77.57723 36946 ft 515 kts 36°
2026-05-07 01:48 36.11949 -77.51227 36958 ft 516 kts 36°
2026-05-07 01:49 36.16826 -77.44669 36949 ft 518 kts 36°
2026-05-07 01:49 36.21690 -77.38105 36956 ft 517 kts 36°
2026-05-07 01:50 36.26519 -77.31579 36960 ft 518 kts 36°
2026-05-07 01:50 36.31401 -77.25028 36993 ft 513 kts 32°
2026-05-07 01:51 36.36622 -77.19146 36961 ft 505 kts 29°
2026-05-07 01:51 36.41836 -77.13313 36958 ft 505 kts 29°
2026-05-07 01:52 36.47054 -77.07465 36953 ft 505 kts 29°
2026-05-07 01:52 36.52234 -77.01647 36945 ft 505 kts 30°
2026-05-07 01:53 36.57456 -76.95771 36950 ft 506 kts 29°
2026-05-07 01:53 36.62669 -76.89894 36951 ft 506 kts 29°
2026-05-07 01:54 36.67880 -76.84009 36957 ft 505 kts 30°
2026-05-07 01:54 36.73081 -76.78123 36958 ft 505 kts 30°
2026-05-07 01:55 36.78285 -76.72224 36957 ft 506 kts 30°
2026-05-07 01:55 36.83484 -76.66318 36952 ft 506 kts 30°
2026-05-07 01:56 36.88645 -76.60444 36944 ft 505 kts 30°
2026-05-07 01:56 36.93840 -76.54519 36941 ft 505 kts 30°
2026-05-07 01:57 36.99036 -76.48585 36931 ft 505 kts 30°
2026-05-07 01:57 37.04222 -76.42647 36934 ft 505 kts 30°
2026-05-07 01:58 37.09403 -76.36705 36932 ft 505 kts 30°
2026-05-07 01:58 37.14540 -76.30800 36931 ft 505 kts 30°
2026-05-07 01:59 37.19719 -76.24839 36915 ft 506 kts 30°
2026-05-07 01:59 37.24901 -76.18859 36917 ft 506 kts 30°
2026-05-07 02:00 37.30078 -76.12875 36929 ft 505 kts 30°
2026-05-07 02:00 37.34371 -76.07906 36947 ft 505 kts 30°
2026-05-07 02:01 37.40377 -76.00936 36924 ft 506 kts 30°
2026-05-07 02:01 37.44714 -75.95893 36928 ft 507 kts 31°
2026-05-07 02:02 37.49889 -75.89864 36920 ft 507 kts 31°
2026-05-07 02:02 37.55255 -75.84423 36919 ft 487 kts 19°
2026-05-07 02:03 37.61031 -75.80087 36923 ft 483 kts 17°
2026-05-07 02:03 37.66808 -75.75751 36932 ft 483 kts 17°
2026-05-07 02:04 37.72589 -75.71404 36934 ft 484 kts 17°
2026-05-07 02:04 37.78372 -75.67051 36946 ft 484 kts 17°
2026-05-07 02:05 37.84123 -75.62699 36911 ft 488 kts 19°
2026-05-07 02:05 37.89776 -75.57803 36915 ft 493 kts 21°
2026-05-07 02:06 37.95430 -75.52887 36917 ft 493 kts 21°
2026-05-07 02:06 38.01085 -75.47961 36890 ft 495 kts 21°
2026-05-07 02:07 38.06759 -75.43020 36893 ft 493 kts 20°
2026-05-07 02:07 38.15384 -75.36029 36883 ft 490 kts 19°
2026-05-07 02:08 38.18258 -75.33707 36655 ft 489 kts 19°
2026-05-07 02:08 38.21087 -75.31407 36434 ft 490 kts 19°
2026-05-07 02:08 38.24040 -75.29363 36185 ft 477 kts 10°
2026-05-07 02:08 38.27101 -75.27925 35940 ft 462 kts
2026-05-07 02:09 38.30191 -75.27063 35696 ft 449 kts 354°
2026-05-07 02:09 38.33288 -75.26432 35452 ft 452 kts 355°
2026-05-07 02:09 38.36398 -75.25783 35213 ft 454 kts 355°
2026-05-07 02:09 38.39520 -75.25124 34982 ft 456 kts 355°
2026-05-07 02:10 38.45803 -75.23796 34906 ft 460 kts 355°
2026-05-07 02:10 38.52115 -75.22462 34900 ft 459 kts 355°
2026-05-07 02:11 38.58377 -75.21146 34893 ft 459 kts 355°
2026-05-07 02:11 38.64688 -75.19819 34912 ft 460 kts 355°
2026-05-07 02:12 38.67853 -75.18973 34906 ft 474 kts
2026-05-07 02:12 38.70982 -75.17427 34904 ft 493 kts 14°
2026-05-07 02:12 38.73971 -75.15114 34902 ft 512 kts 26°
2026-05-07 02:12 38.76813 -75.12325 34899 ft 515 kts 26°
2026-05-07 02:13 38.82482 -75.06743 34729 ft 511 kts 26°
2026-05-07 02:13 38.85302 -75.03971 34265 ft 511 kts 27°
2026-05-07 02:13 38.88099 -75.01228 33438 ft 515 kts 27°
2026-05-07 02:14 38.90956 -74.98424 32626 ft 518 kts 28°
2026-05-07 02:14 38.93821 -74.95605 31811 ft 520 kts 28°
2026-05-07 02:14 38.96694 -74.92774 30991 ft 522 kts 28°
2026-05-07 02:14 38.99583 -74.89924 30196 ft 524 kts 29°
2026-05-07 02:15 39.02468 -74.87072 29522 ft 521 kts 29°
2026-05-07 02:15 39.05322 -74.84241 28985 ft 515 kts 28°
2026-05-07 02:15 39.08144 -74.81441 28403 ft 510 kts 28°
2026-05-07 02:15 39.10935 -74.78654 27827 ft 506 kts 30°
2026-05-07 02:16 39.13605 -74.75819 27279 ft 503 kts 31°
2026-05-07 02:16 39.16256 -74.72916 26732 ft 498 kts 32°
2026-05-07 02:16 39.18881 -74.70033 26183 ft 493 kts 31°
2026-05-07 02:16 39.21483 -74.67188 25657 ft 488 kts 31°
2026-05-07 02:17 39.24066 -74.64376 25156 ft 484 kts 31°
2026-05-07 02:17 39.26641 -74.61584 24575 ft 482 kts 31°
2026-05-07 02:17 39.29190 -74.58818 24096 ft 476 kts 31°
2026-05-07 02:17 39.31714 -74.56077 23612 ft 472 kts 31°
2026-05-07 02:18 39.34215 -74.53360 23067 ft 467 kts 31°
2026-05-07 02:18 39.36689 -74.50670 22526 ft 462 kts 32°
2026-05-07 02:18 39.39134 -74.48009 21991 ft 457 kts 32°
2026-05-07 02:18 39.41552 -74.45375 21463 ft 453 kts 32°
2026-05-07 02:19 39.43949 -74.42763 20953 ft 448 kts 32°
2026-05-07 02:19 39.46324 -74.40172 20447 ft 444 kts 33°
2026-05-07 02:19 39.48637 -74.37647 19956 ft 439 kts 33°
2026-05-07 02:19 39.50962 -74.35106 19442 ft 435 kts 33°
2026-05-07 02:20 39.53254 -74.32598 18992 ft 429 kts 33°
2026-05-07 02:20 39.55526 -74.30111 18498 ft 425 kts 34°
2026-05-07 02:20 39.57775 -74.27645 18010 ft 421 kts 34°
2026-05-07 02:20 39.59999 -74.25205 17528 ft 417 kts 34°
2026-05-07 02:21 39.62216 -74.22773 17057 ft 417 kts 34°
2026-05-07 02:21 39.64424 -74.20348 16599 ft 414 kts 35°
2026-05-07 02:21 39.66607 -74.17945 16152 ft 410 kts 35°
2026-05-07 02:21 39.68752 -74.15583 15699 ft 409 kts 35°
2026-05-07 02:22 39.70916 -74.13199 15270 ft 406 kts 36°
2026-05-07 02:22 39.73064 -74.10829 14838 ft 405 kts 36°
2026-05-07 02:22 39.75203 -74.08468 14415 ft 402 kts 36°
2026-05-07 02:22 39.77327 -74.06121 13995 ft 400 kts 36°
2026-05-07 02:23 39.79438 -74.03786 13568 ft 398 kts 37°
2026-05-07 02:23 39.81538 -74.01460 13135 ft 397 kts 37°
2026-05-07 02:23 39.83652 -73.99173 12635 ft 392 kts 32°
2026-05-07 02:23 39.85926 -73.97309 12194 ft 382 kts 23°
2026-05-07 02:24 39.88222 -73.95704 11813 ft 376 kts 23°
2026-05-07 02:24 39.90492 -73.94100 11562 ft 366 kts 23°
2026-05-07 02:24 39.92695 -73.92535 11323 ft 356 kts 23°
2026-05-07 02:24 39.94843 -73.91009 11077 ft 347 kts 23°
2026-05-07 02:25 39.96940 -73.89520 10830 ft 339 kts 23°
2026-05-07 02:25 39.98986 -73.88067 10588 ft 331 kts 23°
2026-05-07 02:25 40.00994 -73.86672 10369 ft 322 kts 18°
2026-05-07 02:25 40.03059 -73.85719 10132 ft 312 kts
2026-05-07 02:26 40.05179 -73.85131 9895 ft 312 kts
2026-05-07 02:26 40.07285 -73.84538 9650 ft 307 kts
2026-05-07 02:26 40.09342 -73.83950 9393 ft 307 kts
2026-05-07 02:26 40.11425 -73.83351 9134 ft 305 kts
2026-05-07 02:27 40.13494 -73.82756 8869 ft 304 kts
2026-05-07 02:27 40.15559 -73.82164 8540 ft 303 kts
2026-05-07 02:27 40.17606 -73.81575 8212 ft 299 kts
2026-05-07 02:27 40.19634 -73.80991 7889 ft 298 kts
2026-05-07 02:28 40.21665 -73.80408 7580 ft 298 kts
2026-05-07 02:28 40.23684 -73.79827 7263 ft 296 kts
2026-05-07 02:28 40.25684 -73.79251 6947 ft 294 kts
2026-05-07 02:28 40.27686 -73.78676 6582 ft 294 kts
2026-05-07 02:29 40.29651 -73.78110 6271 ft 291 kts
2026-05-07 02:29 40.31616 -73.77543 5946 ft 288 kts
2026-05-07 02:29 40.33564 -73.76981 5614 ft 285 kts
2026-05-07 02:29 40.35498 -73.76423 5289 ft 284 kts
2026-05-07 02:30 40.37420 -73.75869 4966 ft 282 kts
2026-05-07 02:30 40.39328 -73.75319 4651 ft 280 kts
2026-05-07 02:30 40.41220 -73.74772 4335 ft 277 kts
2026-05-07 02:30 40.43095 -73.74229 4003 ft 275 kts
2026-05-07 02:31 40.44952 -73.73691 3682 ft 272 kts
2026-05-07 02:31 40.46789 -73.73160 3358 ft 269 kts
2026-05-07 02:31 40.48588 -73.72639 3043 ft 267 kts
2026-05-07 02:31 40.50396 -73.72116 2721 ft 265 kts
2026-05-07 02:32 40.52189 -73.71596 2397 ft 263 kts
2026-05-07 02:32 40.53968 -73.71081 2066 ft 261 kts
2026-05-07 02:32 40.55728 -73.70570 1854 ft 255 kts
2026-05-07 02:32 40.57414 -73.70076 1812 ft 241 kts
2026-05-07 02:33 40.58998 -73.69608 1811 ft 226 kts
2026-05-07 02:33 40.60505 -73.69168 1814 ft 222 kts
2026-05-07 02:33 40.62008 -73.68737 1813 ft 218 kts
2026-05-07 02:33 40.63476 -73.68313 1813 ft 218 kts
2026-05-07 02:34 40.64935 -73.67889 1812 ft 207 kts
2026-05-07 02:34 40.66284 -73.67489 1809 ft 191 kts
2026-05-07 02:34 40.67498 -73.67125 1824 ft 172 kts
2026-05-07 02:34 40.68623 -73.66792 1814 ft 164 kts
2026-05-07 02:35 40.69745 -73.66474 1738 ft 164 kts
2026-05-07 02:35 40.70829 -73.66164 1611 ft 153 kts
2026-05-07 02:35 40.71861 -73.65866 1637 ft 163 kts
2026-05-07 02:35 40.72996 -73.65984 1622 ft 164 kts 326°
2026-05-07 02:36 40.73700 -73.67054 1613 ft 155 kts 284°
2026-05-07 02:36 40.73566 -73.68424 1611 ft 158 kts 239°
2026-05-07 02:36 40.72661 -73.69319 1610 ft 167 kts 212°
2026-05-07 02:36 40.71676 -73.69931 1603 ft 144 kts 213°
2026-05-07 02:37 40.70808 -73.70546 1480 ft 144 kts 217°
2026-05-07 02:37 40.69961 -73.71236 1281 ft 144 kts 217°
2026-05-07 02:37 40.69091 -73.71889 1033 ft 142 kts 216°
2026-05-07 02:37 40.68254 -73.72559 879 ft 141 kts 215°
2026-05-07 02:38 40.67420 -73.73211 673 ft 135 kts 214°
2026-05-07 02:38 40.66638 -73.73838 482 ft 137 kts 212°
2026-05-07 02:38 40.65802 -73.74492 373 ft 139 kts 211°
2026-05-07 02:38 40.64992 -73.75124 176 ft 131 kts 210°
2026-05-07 02:39 40.64232 -73.75722 45 ft 120 kts 211°
2026-05-07 02:39 40.63621 -73.76194 22 ft 83 kts 211°
2026-05-07 02:39 40.63308 -73.76457 21 ft 16 kts 239°
2026-05-07 02:39 40.63268 -73.76568 20 ft 20 kts 243°